Weather History for KDZB - January, 2014

Change the Weather History Date:

Sunday, January 12, 2014

  Actual Average (KBMQ) Record (KBMQ)
Temperature  
Mean Temperature 54 °F -  
Max Temperature 66 °F 57 °F 77 °F (2014)
Min Temperature 42 °F 37 °F 21 °F (1997)
Degree Days  
Heating Degree Days 11    
Growing Degree Days 4 (Base 50)    
Moisture  
Dew Point 42 °F    
Average Humidity 55    
Maximum Humidity 88    
Minimum Humidity 32    
Precipitation  
Precipitation 0.01 in - - ()
Sea Level Pressure  
Sea Level Pressure 29.97 in    
Wind  
Wind Speed 5 mph (South)    
Max Wind Speed 12 mph    
Max Gust Speed 28 mph    
Visibility 10 miles    
Events Rain    
Averages and records for this station are not official NWS values.
T = Trace of Precipitation, MM = Missing Value Source: NWS Daily Summary

Daily Weather History Graph

Daily Weather History Graph

Search for Another Location

Airport or City:

Trip Planner

Search our weather history database for the weather conditions in past years. The results will help you decide how hot, cold, wet, or windy it might be!

Date:

Astronomy

Jan. 12, 2014 Rise Set
Actual Time 6:31 AM MST 4:52 PM MST
Civil Twilight 6:05 AM MST 5:18 PM MST
Nautical Twilight 5:35 AM MST 5:48 PM MST
Astronomical Twilight 5:06 AM MST 6:17 PM MST
Moon 2:19 PM MST (1/12) 3:33 AM MST (1/12)
Length of Visible Light 11h 13m
Length of Day
10h 20m
Waxing Gibbous, 90% of the Moon is Illuminated
Jan 12
Waxing Gibbous
Jan 15
Full
Jan 23
Last Quarter
Jan 30
New
Feb 6
First Quarter

Hourly Weather History & Observations

Time (MST) Temp. Dew Point Humidity Pressure Visibility Wind Dir Wind Speed Gust Speed Precip Events Conditions
12:15 AM 49.8 °F 30.0 °F 47% 30.08 in 10.0 mi South 3.5 mph - N/A   Clear
12:35 AM 55.4 °F 28.2 °F 35% 30.08 in 10.0 mi SSW 4.6 mph - N/A   Clear
12:55 AM 54.0 °F 28.0 °F 37% 30.08 in 10.0 mi South 9.2 mph - N/A   Clear
1:15 AM 54.0 °F 28.8 °F 38% 30.07 in 10.0 mi Calm Calm - N/A   Clear
1:35 AM 53.4 °F 29.1 °F 39% 30.07 in 10.0 mi South 6.9 mph - N/A   Clear
1:55 AM 53.4 °F 29.8 °F 40% 30.07 in 10.0 mi South 6.9 mph - N/A   Clear
2:15 AM 53.1 °F 31.1 °F 43% 30.06 in 10.0 mi South 5.8 mph - N/A   Clear
2:35 AM 54.5 °F 32.0 °F 42% 30.06 in 10.0 mi South 4.6 mph - N/A   Clear
2:55 AM 54.5 °F 31.8 °F 42% 30.06 in 10.0 mi South 3.5 mph - N/A   Clear
3:15 AM 53.8 °F 31.5 °F 43% 30.05 in 10.0 mi SSE 5.8 mph - N/A   Clear
3:35 AM 52.7 °F 31.5 °F 44% 30.05 in 10.0 mi SSE 4.6 mph - N/A   Clear
3:55 AM 50.4 °F 31.1 °F 48% 30.04 in 10.0 mi South 3.5 mph - N/A   Clear
4:15 AM 48.4 °F 30.9 °F 51% 30.04 in 10.0 mi South 4.6 mph - N/A   Clear
4:35 AM 51.1 °F 29.3 °F 43% 30.04 in 10.0 mi South 4.6 mph - N/A   Clear
4:55 AM 50.0 °F 28.2 °F 43% 30.04 in 10.0 mi South 3.5 mph - N/A   Clear
5:15 AM 46.6 °F 28.0 °F 49% 30.04 in 10.0 mi Calm Calm - N/A   Clear
5:35 AM 43.7 °F 29.5 °F 57% 30.03 in 10.0 mi Calm Calm - N/A   Clear
5:55 AM 42.8 °F 28.9 °F 58% 30.03 in 10.0 mi Calm Calm - N/A   Clear
6:15 AM 51.6 °F 25.5 °F 36% 30.03 in 10.0 mi SSE 4.6 mph - N/A   Clear
6:35 AM 55.2 °F 25.3 °F 32% 30.04 in 10.0 mi South 8.1 mph - N/A   Clear
6:55 AM 55.4 °F 25.7 °F 32% 30.04 in 10.0 mi South 3.5 mph 18.4 mph N/A   Clear
7:15 AM 55.4 °F 27.3 °F 34% 30.05 in 10.0 mi Calm Calm - N/A   Clear
7:35 AM 56.7 °F 28.4 °F 34% 30.06 in 10.0 mi Calm Calm - N/A   Clear
7:55 AM 58.8 °F 29.7 °F 33% 30.07 in 10.0 mi SW 5.8 mph - N/A   Clear
8:15 AM 59.9 °F 31.3 °F 34% 30.07 in 10.0 mi SSW 4.6 mph - N/A   Clear
8:35 AM 61.5 °F 32.4 °F 33% 30.08 in 10.0 mi SSW 8.1 mph - N/A   Clear
8:55 AM 64.0 °F 34.7 °F 34% 30.08 in 10.0 mi SSW 6.9 mph - N/A   Clear
9:15 AM 65.1 °F 36.0 °F 34% 30.08 in 10.0 mi South 9.2 mph 17.3 mph N/A   Clear
9:35 AM 63.9 °F 37.9 °F 38% 30.08 in 10.0 mi South 6.9 mph - N/A   Clear
9:55 AM 64.6 °F 38.8 °F 39% 30.06 in 10.0 mi SSW 10.4 mph 18.4 mph N/A   Clear
10:15 AM 65.5 °F 36.9 °F 35% 30.05 in 10.0 mi South 11.5 mph 19.6 mph N/A   Clear
10:35 AM 65.3 °F 38.3 °F 37% 30.04 in 10.0 mi South 8.1 mph 23.0 mph N/A   Clear
10:55 AM 64.8 °F 39.2 °F 39% 30.03 in 10.0 mi South 10.4 mph 20.7 mph N/A   Clear
11:15 AM 64.6 °F 41.7 °F 43% 30.02 in 10.0 mi South 8.1 mph - N/A   Clear
11:35 AM 64.6 °F 44.8 °F 49% 30.00 in 10.0 mi SSW 6.9 mph - N/A   Clear
11:55 AM 64.4 °F 46.9 °F 53% 29.99 in 10.0 mi SSW 11.5 mph 27.6 mph N/A   Clear
12:15 PM 64.6 °F 48.0 °F 55% 29.97 in 10.0 mi South 10.4 mph 17.3 mph N/A   Clear
12:35 PM 65.3 °F 50.0 °F 58% 29.96 in 10.0 mi SSW 10.4 mph 21.9 mph N/A   Clear
12:55 PM 66.0 °F 50.2 °F 57% 29.94 in 10.0 mi SSW 5.8 mph - N/A   Clear
1:15 PM 66.2 °F 49.1 °F 54% 29.94 in 10.0 mi South 9.2 mph 19.6 mph N/A   Clear
1:35 PM 65.7 °F 49.5 °F 56% 29.93 in 10.0 mi South 9.2 mph 21.9 mph N/A   Clear
1:55 PM 65.3 °F 50.0 °F 58% 29.92 in 10.0 mi South 5.8 mph - N/A   Clear
2:15 PM 64.4 °F 49.1 °F 58% 29.91 in 10.0 mi South 8.1 mph - N/A   Clear
2:35 PM 64.8 °F 48.4 °F 55% 29.91 in 10.0 mi SSW 5.8 mph - N/A   Clear
2:55 PM 64.6 °F 48.6 °F 56% 29.91 in 10.0 mi SSW 3.5 mph - N/A   Scattered Clouds
3:15 PM 64.4 °F 50.0 °F 59% 29.90 in 10.0 mi SSW 3.5 mph - N/A   Mostly Cloudy
3:35 PM 63.5 °F 50.5 °F 63% 29.89 in 10.0 mi Calm Calm - N/A   Mostly Cloudy
3:55 PM 63.1 °F 50.7 °F 64% 29.88 in 10.0 mi South 4.6 mph - N/A   Overcast
4:15 PM 63.1 °F 50.9 °F 64% 29.89 in 10.0 mi South 4.6 mph - N/A   Overcast
4:35 PM 63.0 °F 51.1 °F 65% 29.90 in 10.0 mi Calm Calm - N/A   Overcast
4:55 PM 62.6 °F 51.3 °F 66% 29.90 in 10.0 mi SSE 3.5 mph - N/A   Overcast
5:15 PM 62.8 °F 51.4 °F 66% 29.90 in 10.0 mi South 3.5 mph - N/A   Overcast
5:35 PM 63.0 °F 51.4 °F 66% 29.90 in 10.0 mi Calm Calm - N/A   Overcast
5:55 PM 63.3 °F 51.8 °F 66% 29.89 in 10.0 mi South 8.1 mph - N/A   Overcast
6:15 PM 63.3 °F 52.0 °F 66% 29.90 in 10.0 mi South 5.8 mph - N/A   Overcast
6:35 PM 61.5 °F 53.8 °F 76% 29.88 in 7.0 mi South 5.8 mph - 0.01 in Rain Light Rain
6:55 PM 60.1 °F 54.0 °F 80% 29.88 in 10.0 mi South 3.5 mph - 0.01 in Rain Light Rain
7:15 PM 60.4 °F 53.8 °F 79% 29.86 in 10.0 mi SSE 10.4 mph 16.1 mph N/A   Scattered Clouds
7:35 PM 61.2 °F 53.2 °F 75% 29.86 in 10.0 mi SSE 5.8 mph 17.3 mph N/A   Clear
7:55 PM 61.3 °F 52.9 °F 74% 29.88 in 10.0 mi Calm Calm - N/A   Clear
8:15 PM 60.6 °F 53.1 °F 76% 29.88 in 10.0 mi Calm Calm - N/A   Clear
8:35 PM 61.2 °F 53.2 °F 75% 29.89 in 10.0 mi SSE 8.1 mph - N/A   Clear
8:55 PM 61.9 °F 54.5 °F 77% 29.90 in 10.0 mi South 10.4 mph 20.7 mph N/A   Scattered Clouds
9:15 PM 62.1 °F 55.4 °F 79% 29.90 in 10.0 mi SSW 3.5 mph - N/A   Scattered Clouds
9:35 PM 62.1 °F 55.9 °F 80% 29.90 in 10.0 mi South 3.5 mph - N/A   Scattered Clouds
9:55 PM 61.9 °F 56.7 °F 83% 29.88 in 10.0 mi SSE 5.8 mph - N/A   Mostly Cloudy
10:15 PM 61.7 °F 56.8 °F 84% 29.88 in 10.0 mi South 4.6 mph - N/A   Mostly Cloudy
10:35 PM 61.7 °F 57.2 °F 85% 29.88 in 10.0 mi Calm Calm - N/A   Overcast
10:55 PM 61.7 °F 57.2 °F 85% 29.86 in 10.0 mi Calm Calm - N/A   Mostly Cloudy
11:15 PM 61.7 °F 57.2 °F 85% 29.86 in 10.0 mi Calm Calm - N/A   Scattered Clouds
11:35 PM 61.5 °F 57.7 °F 87% 29.85 in 10.0 mi Calm Calm - N/A   Mostly Cloudy
11:55 PM 60.8 °F 57.4 °F 88% 29.85 in 10.0 mi Calm Calm - N/A   Mostly Cloudy